User: anonymous   Login
Location: Unspecified
(49.9820°N, 20.4363°E)
Time: 10:36:29
(UTC+02:00)
Language:

ISS - Orbit

View from above orbital plane
View from above orbital plane
View from above satellite
View from above satellite

Ground track
Ground track

The orbit data is extracted from the following two-line orbital elements,

1 25544U 98067A   18199.58139359  .00016717  00000-0  10270-3 0  9031
2 25544  51.6377 222.2382 0003971 330.2892  29.8034 15.53991358  3399
Epoch (UTC): 18 July 2018 13:57:12
Eccentricity: 0.0003971
inclination: 51.6377°
perigee height: 402 km
apogee height: 408 km
right ascension of ascending node: 222.2382°
argument of perigee: 330.2892°
revolutions per day: 15.53991358
mean anomaly at epoch: 29.8034°
orbit number at epoch: 339

The dashed part of the orbit path shows where the satellite is in the earth's shadow,  

DLR